EW9274 Weather Reports


time (UTC)temp
F
wind
direction
speed
knots
gust
knots
rain 1hr
in
rain 24hr
in
rain mn
in
humidity
%
barometer
mb
20260906131014 70 86 0.9 3.5 0.00 0.00 0.00 83 1020.7
20260906130513 69 101 1.7 3.5 0.00 0.00 0.00 84 1020.7
20260906130028 69 5 0.0 1.7 0.00 0.00 0.00 85 1020.6
20260906125520 68 350 0.0 2.6 0.00 0.00 0.00 86 1020.6
20260906125020 68 11 0.9 2.6 0.00 0.00 0.00 86 1020.4
20260906124516 67 36 0.0 2.6 0.00 0.00 0.00 87 1020.4
20260906124013 67 55 0.9 2.6 0.00 0.00 0.00 87 1020.3
20260906123516 67 81 1.7 2.6 0.00 0.00 0.00 87 1020.2
20260906123016 67 116 0.9 2.6 0.00 0.00 0.00 87 1020.2
20260906122512 67 74 0.0 1.7 0.00 0.00 0.00 88 1020.2
20260906122018 66 105 0.0 1.7 0.00 0.00 0.00 89 1020.2
20260906121517 66 69 0.0 1.7 0.00 0.00 0.00 89 1020.1
20260906121011 66 85 0.0 1.7 0.00 0.00 0.00 90 1020.1
20260906120516 65 103 0.0 1.7 0.00 0.00 0.00 1020.1
20260906120020 65 68 0.0 1.7 0.00 0.00 0.00 91 1020.1
20260906115515 65 92 0.0 1.7 0.00 0.00 0.00 91 1019.9
20260906115015 65 61 0.9 1.7 0.00 0.00 0.00 91 1019.7
20260906114524 65 73 0.9 1.7 0.00 0.00 0.00 91 1019.7
20260906114018 65 90 0.0 1.7 0.00 0.00 0.00 91 1019.7
20260906113514 65 65 0.0 1.7 0.00 0.00 0.00 91 1019.6
20260906113036 65 51 0.9 2.6 0.00 0.00 0.00 90 1019.5
20260906112513 65 76 0.9 2.6 0.00 0.00 0.00 90 1019.4
20260906112020 65 48 0.9 1.7 0.00 0.00 0.00 90 1019.4
20260906111525 65 86 0.0 1.7 0.00 0.00 0.00 90 1019.5
20260906111015 65 134 0.0 3.5 0.00 0.00 0.00 90 1019.5
20260906110516 65 74 0.0 3.5 0.00 0.00 0.00 90 1019.4
20260906110027 65 91 1.7 3.5 0.00 0.00 0.00 90 1019.3
20260906105518 65 74 1.7 3.5 0.00 0.00 0.00 90 1019.3
20260906105007 65 88 0.9 4.3 0.00 0.00 0.00 90 1019.3
20260906104529 65 54 2.6 4.3 0.00 0.00 0.00 90 1019.2
20260906104014 65 13 2.6 4.3 0.00 0.00 0.00 90 1019.2
20260906103507 65 65 1.7 4.3 0.00 0.00 0.00 90 1019.2
20260906103004 65 73 2.6 4.3 0.00 0.00 0.00 89 1019.3
20260906102502 65 63 2.6 3.5 0.00 0.00 0.00 89 1019.3
20260906102010 65 90 1.7 4.3 0.00 0.00 0.00 89 1019.3
20260906101503 65 78 2.6 4.3 0.00 0.00 0.00 89 1019.2
20260906101006 65 36 2.6 4.3 0.00 0.00 0.00 89 1019.1
20260906100510 65 74 2.6 4.3 0.00 0.00 0.00 1019.2
20260906100004 66 63 1.7 3.5 0.00 0.00 0.00 88 1019.2
20260906095503 66 62 1.7 3.5 0.00 0.00 0.00 88 1019.1
20260906095011 66 68 0.9 2.6 0.00 0.00 0.00 89 1019.1
20260906094512 66 71 0.0 1.7 0.00 0.00 0.00 89 1019.2
20260906094004 65 40 0.0 1.7 0.00 0.00 0.00 88 1019.2
20260906093510 66 360 0.9 1.7 0.00 0.00 0.00 88 1019.1
20260906093003 66 67 0.0 1.7 0.00 0.00 0.00 88 1019.0
20260906092513 66 58 0.9 1.7 0.00 0.00 0.00 88 1018.9
20260906092014 66 69 0.0 1.7 0.00 0.00 0.00 88 1018.9
20260906091519 66 104 0.0 1.7 0.00 0.00 0.00 87 1018.9
20260906091007 66 39 0.0 1.7 0.00 0.00 0.00 87 1018.9
20260906090519 66 89 0.0 1.7 0.00 0.00 0.00 87 1018.9
20260906090005 66 103 0.9 1.7 0.00 0.00 0.00 87 1019.0
20260906085518 66 352 0.9 3.5 0.00 0.00 0.00 87 1019.1
20260906085016 66 57 0.9 3.5 0.00 0.00 0.00 87 1018.9
20260906084516 66 61 1.7 2.6 0.00 0.00 0.00 1018.9
20260906084010 66 15 0.0 2.6 0.00 0.00 0.00 86 1018.8
20260906083518 66 337 0.9 2.6 0.00 0.00 0.00 86 1018.9
20260906083018 67 23 0.9 2.6 0.00 0.00 0.00 86 1018.9
20260906082511 67 99 0.0 2.6 0.00 0.00 0.00 86 1018.8
20260906082015 67 91 0.9 2.6 0.00 0.00 0.00 86 1018.8
20260906081528 66 63 0.0 2.6 0.00 0.00 0.00 87 1018.8
20260906081011 66 80 0.0 2.6 0.00 0.00 0.00 87 1018.8
20260906080506 66 25 1.7 2.6 0.00 0.00 0.00 87 1018.9
20260906080013 66 47 0.0 2.6 0.00 0.00 0.00 87 1018.9
20260906075509 66 62 0.0 2.6 0.00 0.00 0.00 87 1018.9
20260906075004 66 65 1.7 2.6 0.00 0.00 0.00 87 1018.9
20260906074513 66 78 0.9 1.7 0.00 0.00 0.00 87 1018.8
20260906074010 66 80 0.0 1.7 0.00 0.00 0.00 87 1018.8
20260906073502 66 344 0.0 1.7 0.00 0.00 0.00 87 1018.8
20260906073015 66 333 0.0 1.7 0.00 0.00 0.00 87 1018.8
20260906072514 66 69 0.0 1.7 0.00 0.00 0.00 88 1018.8
20260906072004 66 14 0.9 1.7 0.00 0.00 0.00 87 1018.7
20260906071519 66 25 0.0 1.7 0.00 0.00 0.00 88 1018.7
20260906071012 66 17 0.0 1.7 0.00 0.00 0.00 87 1018.7
20260906070505 66 99 0.0 1.7 0.00 0.00 0.00 88 1018.6
20260906070018 66 90 0.0 1.7 0.00 0.00 0.00 88 1018.7
20260906065513 66 116 0.0 1.7 0.00 0.00 0.00 1018.7
20260906065006 66 115 0.0 1.7 0.00 0.00 0.00 88 1018.7
20260906064518 66 65 0.9 1.7 0.00 0.00 0.00 88 1018.8
20260906064015 66 73 0.0 1.7 0.00 0.00 0.00 88 1018.8
20260906063504 66 26 0.0 1.7 0.00 0.00 0.00 88 1018.8
20260906063023 66 94 0.0 1.7 0.00 0.00 0.00 88 1018.8
20260906062514 66 96 0.0 1.7 0.00 0.00 0.00 88 1018.8
20260906062005 66 214 0.0 1.7 0.00 0.00 0.00 88 1018.8
20260906061527 65 10 0.9 1.7 0.00 0.00 0.00 88 1018.8
20260906061015 65 53 0.9 1.7 0.00 0.00 0.00 88 1018.8
20260906060508 65 123 0.0 1.7 0.00 0.00 0.00 88 1018.8
20260906060028 65 73 0.0 1.7 0.00 0.00 0.00 88 1018.7
20260906055517 65 360 0.0 1.7 0.00 0.00 0.00 88 1018.8
20260906055007 65 341 0.0 1.7 0.00 0.00 0.00 88 1018.7
20260906054527 65 352 0.0 1.7 0.00 0.00 0.00 88 1018.7
20260906054018 65 49 0.0 2.6 0.00 0.00 0.00 88 1018.7
20260906053507 66 344 1.7 2.6 0.00 0.00 0.00 88 1018.8
20260906053037 66 305 0.0 3.5 0.00 0.00 0.00 88 1018.9
20260906052516 66 69 0.0 3.5 0.00 0.00 0.00 88 1018.8
20260906052008 66 84 1.7 2.6 0.00 0.00 0.00 87 1018.7
20260906051534 66 49 1.7 3.5 0.00 0.00 0.00 87 1018.7
20260906051016 66 81 1.7 4.3 0.00 0.00 0.00 87 1018.6
20260906050509 66 71 1.7 4.3 0.00 0.00 0.00 87 1018.5
20260906050052 66 48 1.7 3.5 0.00 0.00 0.00 87 1018.6
20260906045504 66 129 0.9 3.5 0.00 0.00 0.00 87 1018.6
20260906045008 66 87 1.7 3.5 0.00 0.00 0.00 87 1018.6
20260906044530 66 59 2.6 4.3 0.00 0.00 0.00 87 1018.6
20260906044007 66 33 1.7 4.3 0.00 0.00 0.00 87 1018.6
20260906043509 66 46 1.7 4.3 0.00 0.00 0.00 87 1018.6
20260906043008 67 61 0.9 3.5 0.00 0.00 0.00 86 1018.5
20260906042507 67 55 1.7 3.5 0.00 0.00 0.00 86 1018.3
20260906042011 67 69 1.7 3.5 0.00 0.00 0.00 86 1018.2
20260906041504 67 67 1.7 4.3 0.00 0.00 0.00 1018.2
20260906041008 67 80 2.6 6.1 0.00 0.00 0.00 85 1018.1
20260906040512 67 71 2.6 6.1 0.00 0.00 0.00 85 1018.0
20260906040006 67 51 3.5 5.2 0.00 0.00 0.00 85 1018.0
20260906035509 67 82 2.6 5.2 0.00 0.00 0.00 84 1018.2
20260906035014 67 56 3.5 5.2 0.00 0.00 0.00 84 1018.2
20260906034510 67 68 3.5 6.1 0.00 0.00 0.00 84 1018.2
20260906034019 67 57 2.6 6.1 0.00 0.00 0.00 83 1018.1
20260906033511 68 56 1.7 6.1 0.00 0.00 0.00 82 1018.1
20260906033008 68 94 2.6 4.3 0.00 0.00 0.00 82 1018.1
20260906032509 68 65 2.6 7.0 0.00 0.00 0.00 81 1018.2
20260906032015 68 65 2.6 7.0 0.00 0.00 0.00 80 1018.2
20260906031514 68 49 3.5 7.0 0.00 0.00 0.00 79 1018.1
20260906031009 68 26 2.6 7.0 0.00 0.00 0.00 79 1018.1
20260906030517 68 61 3.5 7.0 0.00 0.00 0.00 79 1018.1
20260906030011 68 104 2.6 8.7 0.00 0.00 0.00 79 1018.0
20260906025512 68 70 2.6 8.7 0.00 0.00 0.00 80 1018.1
20260906025017 69 46 5.2 8.7 0.00 0.00 0.00 80 1018.1
20260906024512 69 65 2.6 7.8 0.00 0.00 0.00 80 1018.1
20260906024010 69 71 4.3 7.8 0.00 0.00 0.00 81 1018.0
20260906023516 69 74 3.5 7.8 0.00 0.00 0.00 81 1018.0
20260906023018 69 32 4.3 7.8 0.00 0.00 0.00 81 1017.9
20260906022511 69 57 2.6 8.7 0.00 0.00 0.00 82 1017.8
20260906022015 69 44 5.2 8.7 0.00 0.00 0.00 83 1017.7
20260906021516 70 66 3.5 7.8 0.00 0.00 0.00 83 1017.7
20260906021014 70 53 3.5 8.7 0.00 0.00 0.00 83 1017.7
20260906020504 70 77 4.3 8.7 0.00 0.00 0.00 83 1017.7
20260906020018 70 73 3.5 7.8 0.00 0.00 0.00 83 1017.7
20260906015514 70 73 1.7 5.2 0.00 0.00 0.00 83 1017.7
20260906015003 70 62 3.5 6.1 0.00 0.00 0.00 82 1017.6
20260906014518 71 36 2.6 7.0 0.00 0.00 0.00 82 1017.7
20260906014013 71 41 4.3 7.8 0.00 0.00 0.00 81 1017.6
20260906013506 71 47 4.3 7.8 0.00 0.00 0.00 82 1017.7
20260906013021 71 67 4.3 7.8 0.00 0.00 0.00 82 1017.7
20260906012513 71 37 2.6 7.0 0.00 0.00 0.00 82 1017.7
20260906012010 71 44 2.6 7.0 0.00 0.00 0.00 83 1017.8
20260906011526 71 87 1.7 6.1 0.00 0.00 0.00 84 1017.7
20260906011013 70 54 3.5 7.0 0.00 0.00 0.00 85 1017.8
20260906010511 71 42 3.5 7.0 0.00 0.00 0.00 85 1017.8
20260906010023 70 84 2.6 4.3 0.00 0.00 0.00 86 1017.8
20260906005519 70 88 1.7 6.1 0.00 0.00 0.00 86 1017.9
20260906005009 70 67 1.7 6.1 0.00 0.00 0.00 86 1017.9
20260906004525 70 34 2.6 5.2 0.00 0.00 0.00 86 1017.7
20260906004017 70 88 2.6 7.0 0.00 0.00 0.00 86 1017.6
20260906003509 70 19 3.5 7.0 0.00 0.00 0.00 86 1017.5
20260906003030 70 86 3.5 8.7 0.00 0.00 0.00 85 1017.5
20260906002523 70 63 4.3 8.7 0.00 0.00 0.00 85 1017.7
20260906002008 70 63 2.6 8.7 0.00 0.00 0.00 85 1017.7
20260906001536 70 56 3.5 8.7 0.00 0.00 0.00 85 1017.7
20260906001017 71 33 4.3 7.8 0.00 0.00 0.00 85 1017.6
20260906000509 71 59 4.3 8.7 0.00 0.00 0.00 84 1017.6
20260906000031 71 71 5.2 8.7 0.00 0.00 0.00 84 1017.6
20260905235515 71 77 4.3 8.7 0.00 0.00 0.00 84 1017.5
20260905235009 71 79 4.3 10.4 0.00 0.00 0.00 83 1017.5
20260905234528 72 93 5.2 10.4 0.00 0.00 0.00 82 1017.6
20260905234018 72 47 2.6 10.4 0.00 0.00 0.00 82 1017.6
20260905233510 72 351 3.5 11.3 0.00 0.00 0.00 82 1017.6
20260905233032 72 63 4.3 11.3 0.00 0.00 0.00 82 1017.7
20260905232521 72 117 6.1 9.6 0.00 0.00 0.00 82 1017.6
20260905232012 72 92 3.5 7.8 0.00 0.00 0.00 82 1017.7
20260905231530 72 144 2.6 10.4 0.00 0.00 0.00 83 1017.5
20260905231006 72 24 4.3 10.4 0.00 0.00 0.00 82 1017.6
20260905230513 73 65 3.5 10.4 0.00 0.00 0.00 82 1017.6
20260905230033 73 57 3.5 9.6 0.00 0.00 0.00 82 1017.5
20260905225512 73 38 6.1 9.6 0.00 0.00 0.00 82 1017.4
20260905225014 73 147 6.1 8.7 0.00 0.00 0.00 82 1017.3
20260905224533 73 92 3.5 10.4 0.00 0.00 0.00 82 1017.3
20260905224005 73 73 4.3 10.4 0.00 0.00 0.00 82 1017.5
20260905223515 73 77 6.1 9.6 0.00 0.00 0.00 81 1017.5
20260905223036 73 34 2.6 8.7 0.00 0.00 0.00 82 1017.4
20260905222511 73 102 4.3 8.7 0.00 0.00 0.00 82 1017.4
20260905222019 74 65 5.2 8.7 0.00 0.00 0.00 81 1017.3
20260905221531 74 55 3.5 9.6 0.00 0.00 0.00 81 1017.2
20260905221008 74 51 6.1 10.4 0.00 0.00 0.00 80 1017.1
20260905220515 75 101 7.0 10.4 0.00 0.00 0.00 79 1017.1
20260905220035 75 68 4.3 10.4 0.00 0.00 0.00 78 1017.0
20260905215519 75 67 6.1 10.4 0.00 0.00 0.00 78 1016.9
20260905215017 76 51 1.7 7.0 0.00 0.00 0.00 77 1016.8
20260905214533 75 242 1.7 12.2 0.00 0.00 0.00 77 1016.7
20260905214016 75 182 2.6 12.2 0.00 0.00 0.00 78 1016.7
20260905213518 75 50 8.7 12.2 0.00 0.00 0.00 76 1016.6
20260905213033 76 20 5.2 12.2 0.00 0.00 0.00 76 1016.6
20260905212514 77 79 7.0 12.2 0.00 0.00 0.00 75 1016.6
20260905212018 77 92 3.5 11.3 0.00 0.00 0.00 75 1016.5
20260905211534 77 61 7.0 11.3 0.00 0.00 0.00 74 1016.6
20260905211014 77 55 7.0 13.0 0.00 0.00 0.00 73 1016.5
20260905210519 77 34 7.0 12.2 0.00 0.00 0.00 72 1016.7
20260905210043 78 37 3.5 11.3 0.00 0.00 0.00 73 1016.6
20260905205513 78 55 5.2 9.6 0.00 0.00 0.00 73 1016.5
20260905205016 78 338 4.3 10.4 0.00 0.00 0.00 74 1016.7
20260905204537 78 332 5.2 9.6 0.00 0.00 0.00 73 1016.9
20260905204013 78 262 3.5 9.6 0.00 0.00 0.00 73 1016.8
20260905203514 77 75 4.3 8.7 0.00 0.00 0.00 74 1016.8
20260905203032 77 101 5.2 11.3 0.00 0.00 0.00 75 1016.8
20260905202515 78 111 5.2 11.3 0.00 0.00 0.00 73 1016.9
20260905202017 79 69 6.1 12.2 0.00 0.00 0.00 71 1016.9
20260905201527 78 46 5.2 12.2 0.00 0.00 0.00 74 1016.8
20260905201014 78 67 5.2 12.2 0.00 0.00 0.00 73 1016.9
20260905200517 78 78 6.1 12.2 0.00 0.00 0.00 73 1016.9
20260905200038 79 90 4.3 9.6 0.00 0.00 0.00 73 1016.9
20260905195513 78 186 3.5 10.4 0.00 0.00 0.00 74 1017.0
20260905195020 77 136 2.6 10.4 0.00 0.00 0.00 76 1017.0
20260905194535 77 99 5.2 11.3 0.00 0.00 0.00 76 1016.9
20260905194014 77 63 7.0 12.2 0.00 0.00 0.00 77 1017.0
20260905193519 78 59 4.3 12.2 0.00 0.00 0.00 76 1017.0
20260905193030 78 39 4.3 11.3 0.00 0.00 0.00 75 1016.9
20260905192520 78 301 5.2 10.4 0.00 0.00 0.00 78 1016.9
20260905192019 79 50 6.1 11.3 0.00 0.00 0.00 74 1016.8
20260905191507 81 52 7.0 11.3 0.00 0.00 0.00 70 1016.7
20260905191003 81 59 3.5 9.6 0.00 0.00 0.00 69 1016.7
20260905190505 81 234 2.6 7.0 0.00 0.00 0.00 69 1016.7
20260905190012 82 256 2.6 6.1 0.00 0.00 0.00 70 1016.8
20260905185503 80 46 1.7 7.8 0.00 0.00 0.00 71 1016.8
20260905185004 80 352 2.6 7.8 0.00 0.00 0.00 69 1017.0
20260905184515 80 158 1.7 7.8 0.00 0.00 0.00 70 1016.9
20260905184004 80 12 1.7 7.8 0.00 0.00 0.00 70 1016.8
20260905183504 80 326 2.6 7.8 0.00 0.00 0.00 69 1016.9
20260905183014 80 62 2.6 8.7 0.00 0.00 0.00 69 1016.9
20260905182504 80 9 2.6 9.6 0.00 0.00 0.00 70 1017.0
20260905182004 80 352 3.5 9.6 0.00 0.00 0.00 69 1017.0
20260905181513 80 281 3.5 8.7 0.00 0.00 0.00 69 1016.9
20260905181005 80 335 2.6 8.7 0.00 0.00 0.00 70 1016.9
20260905180505 80 46 1.7 8.7 0.00 0.00 0.00 70 1016.9
20260905180010 79 16 2.6 8.7 0.00 0.00 0.00 71 1016.8
20260905175505 79 96 2.6 8.7 0.00 0.00 0.00 72 1017.0
20260905175003 80 69 2.6 8.7 0.00 0.00 0.00 71 1016.9
20260905174526 79 34 3.5 7.8 0.00 0.00 0.00 73 1016.7
20260905174005 79 38 4.3 7.0 0.00 0.00 0.00 72 1016.7
20260905173507 78 132 2.6 6.1 0.00 0.00 0.00 74 1016.9
20260905173008 79 58 2.6 7.0 0.00 0.00 0.00 72 1017.0
20260905172504 79 84 2.6 7.0 0.00 0.00 0.00 73 1017.0
20260905172007 80 61 1.7 8.7 0.00 0.00 0.00 72 1017.0
20260905171508 79 40 1.7 8.7 0.00 0.00 0.00 74 1016.9
20260905171007 78 101 1.7 6.1 0.00 0.00 0.00 75 1016.8
20260905170504 78 9 1.7 7.8 0.00 0.00 0.00 76 1016.9
20260905170010 78 15 1.7 7.0 0.00 0.00 0.00 75 1017.0
20260905165506 78 17 0.9 5.2 0.00 0.00 0.00 74 1017.0
20260905165006 78 271 0.9 5.2 0.00 0.00 0.00 74 1017.0
20260905164512 78 83 1.7 6.1 0.00 0.00 0.00 75 1017.1
20260905164005 77 85 2.6 6.1 0.00 0.00 0.00 78 1017.1
20260905163504 77 74 1.7 5.2 0.00 0.00 0.00 77 1017.2
20260905163014 77 148 2.6 6.1 0.00 0.00 0.00 76 1017.1
20260905162506 77 88 2.6 6.1 0.00 0.00 0.00 76 1017.0
20260905162006 77 13 3.5 7.0 0.00 0.00 0.00 77 1017.0
20260905161514 77 64 0.9 7.0 0.00 0.00 0.00 78 1017.0
20260905161007 76 90 1.7 7.0 0.00 0.00 0.00 79 1017.0
20260905160507 76 65 1.7 7.0 0.00 0.00 0.00 79 1017.0
20260905160027 77 350 1.7 4.3 0.00 0.00 0.00 78 1017.0
20260905155508 77 33 0.9 5.2 0.00 0.00 0.00 79 1016.9
20260905155007 76 97 2.6 6.1 0.00 0.00 0.00 79 1016.9
20260905154514 76 24 1.7 7.0 0.00 0.00 0.00 80 1016.8
20260905154006 75 94 1.7 7.0 0.00 0.00 0.00 80 1016.8
20260905153508 76 95 0.9 3.5 0.00 0.00 0.00 80 1016.8
20260905153015 76 337 0.9 4.3 0.00 0.00 0.00 81 1016.8
20260905152509 76 46 1.7 4.3 0.00 0.03 0.00 80 1016.7
20260905152012 76 178 0.9 5.2 0.00 0.17 0.00 81 1016.7
20260905151516 75 35 0.9 5.2 0.00 0.35 0.00 81 1016.6
20260905151010 76 66 2.6 7.0 0.00 0.40 0.00 80 1016.6
20260905150507 76 88 1.7 7.0 0.00 0.40 0.00 79 1016.6
20260905150022 76 82 0.9 7.0 0.00 0.40 0.00 80 1016.5
20260905145512 74 88 2.6 7.0 0.00 0.40 0.00 85 1016.4
20260905145007 73 66 0.9 8.7 0.00 0.40 0.00 86 1016.4
20260905144537 73 60 3.5 8.7 0.00 0.40 0.00 87 1016.4
20260905144012 72 133 1.7 7.8 0.00 0.40 0.00 87 1016.4
20260905143507 72 111 2.6 10.4 0.00 0.40 0.00 87 1016.3
20260905143022 72 71 6.1 10.4 0.00 0.40 0.00 87 1016.2
20260905142509 72 71 3.5 9.6 0.00 0.40 0.00 87 1016.0
20260905142012 73 50 6.1 9.6 0.00 0.40 0.00 87 1016.0
20260905141530 73 44 3.5 7.0 0.00 0.40 0.00 87 1015.9
20260905141014 73 52 2.6 7.0 0.00 0.42 0.00 87 1015.9
20260905140509 73 59 3.5 7.0 0.00 0.45 0.00 87 1015.9
20260905140022 73 352 1.7 10.4 0.00 0.45 0.00 87 1015.9
20260905135507 73 21 5.2 10.4 0.00 0.45 0.00 86 1015.8
20260905135011 73 84 2.6 5.2 0.00 0.45 0.00 86 1015.9
20260905134520 73 131 0.9 8.7 0.00 0.45 0.00 87 1015.9
20260905134011 73 93 2.6 8.7 0.00 0.45 0.00 88 1016.0
20260905133512 72 76 2.6 7.8 0.00 0.45 0.00 88 1016.0
20260905133029 72 53 1.7 6.1 0.00 0.45 0.00 88 1015.9
20260905132513 72 46 2.6 6.1 0.00 0.45 0.00 88 1016.1
20260905132012 72 360 3.5 7.0 0.00 0.45 0.00 88 1016.0
20260905131507 72 84 1.7 7.0 0.00 0.45 0.00 89 1016.2